Time,TemperatureF,DewpointF,PressureIn,WindDirection,WindDirectionDegrees,WindSpeedMPH,WindSpeedGustMPH,Humidity,HourlyPrecipIn,Conditions,Clouds,dailyrainin,SoftwareType,DateUTC
2013-07-18 00:07:00,83.4,77.0,30.07,West,278,2.0,4.0,80,0.00,,,0.00,weatherlink.com 1.10,2013-07-18 04:07:00,
2013-07-18 00:22:00,82.8,76.0,30.07,West,259,3.0,4.0,80,0.00,,,0.00,weatherlink.com 1.10,2013-07-18 04:22:00,
2013-07-18 00:37:00,82.7,76.0,30.07,West,260,1.0,5.0,80,0.00,,,0.00,weatherlink.com 1.10,2013-07-18 04:37:00,
2013-07-18 00:52:00,82.4,76.0,30.07,WSW,239,2.0,5.0,82,0.00,,,0.00,weatherlink.com 1.10,2013-07-18 04:52:00,
2013-07-18 01:07:00,82.1,76.0,30.07,West,266,4.0,5.0,81,0.00,,,0.00,weatherlink.com 1.10,2013-07-18 05:07:00,
2013-07-18 01:22:00,81.9,76.0,30.07,WSW,255,1.0,4.0,83,0.00,,,0.00,weatherlink.com 1.10,2013-07-18 05:22:00,
2013-07-18 01:37:00,81.7,76.0,30.07,WSW,257,1.0,5.0,83,0.00,,,0.00,weatherlink.com 1.10,2013-07-18 05:37:00,
2013-07-18 01:52:00,81.7,76.0,30.06,WSW,257,1.0,3.0,83,0.00,,,0.00,weatherlink.com 1.10,2013-07-18 05:52:00,
2013-07-18 02:07:00,81.5,76.0,30.06,West,281,2.0,4.0,83,0.00,,,0.00,weatherlink.com 1.10,2013-07-18 06:07:00,
2013-07-18 02:22:00,81.4,76.0,30.05,WSW,257,2.0,4.0,83,0.00,,,0.00,weatherlink.com 1.10,2013-07-18 06:22:00,
2013-07-18 02:37:00,81.4,75.0,30.05,West,266,0.0,3.0,81,0.00,,,0.00,weatherlink.com 1.10,2013-07-18 06:37:00,
2013-07-18 02:52:00,81.5,75.0,30.05,West,274,3.0,4.0,81,0.00,,,0.00,weatherlink.com 1.10,2013-07-18 06:52:00,
2013-07-18 03:07:00,81.5,75.0,30.04,West,273,3.0,5.0,81,0.00,,,0.00,weatherlink.com 1.10,2013-07-18 07:07:00,
2013-07-18 03:22:00,81.4,75.0,30.04,West,269,2.0,4.0,82,0.00,,,0.00,weatherlink.com 1.10,2013-07-18 07:22:00,
2013-07-18 03:37:00,81.5,75.0,30.04,West,275,2.0,5.0,81,0.00,,,0.00,weatherlink.com 1.10,2013-07-18 07:37:00,
2013-07-18 03:52:00,81.3,75.0,30.04,WSW,256,3.0,4.0,82,0.00,,,0.00,weatherlink.com 1.10,2013-07-18 07:52:00,
2013-07-18 04:07:00,81.1,76.0,30.04,West,262,3.0,5.0,83,0.00,,,0.00,weatherlink.com 1.10,2013-07-18 08:07:00,
2013-07-18 04:22:00,80.9,75.0,30.04,West,260,5.0,5.0,83,0.00,,,0.00,weatherlink.com 1.10,2013-07-18 08:22:00,
2013-07-18 04:37:00,80.7,75.0,30.04,WSW,248,3.0,5.0,83,0.00,,,0.00,weatherlink.com 1.10,2013-07-18 08:37:00,
2013-07-18 04:52:00,80.6,75.0,30.03,WSW,255,3.0,5.0,83,0.00,,,0.00,weatherlink.com 1.10,2013-07-18 08:52:00,
2013-07-18 05:07:00,80.5,75.0,30.03,West,269,4.0,5.0,84,0.00,,,0.00,weatherlink.com 1.10,2013-07-18 09:07:00,
2013-07-18 05:22:00,80.4,76.0,30.03,West,273,0.0,3.0,85,0.00,,,0.00,weatherlink.com 1.10,2013-07-18 09:22:00,
2013-07-18 05:37:00,80.0,75.0,30.03,SW,236,1.0,3.0,85,0.00,,,0.00,weatherlink.com 1.10,2013-07-18 09:37:00,
2013-07-18 05:52:00,79.9,75.0,30.03,SW,236,1.0,3.0,86,0.00,,,0.00,weatherlink.com 1.10,2013-07-18 09:52:00,
2013-07-18 06:07:00,79.8,76.0,30.04,WNW,288,2.0,3.0,87,0.00,,,0.00,weatherlink.com 1.10,2013-07-18 10:07:00,
2013-07-18 06:22:00,79.9,75.0,30.04,West,264,5.0,8.0,86,0.00,,,0.00,weatherlink.com 1.10,2013-07-18 10:22:00,
2013-07-18 06:37:00,80.0,76.0,30.04,WSW,240,1.0,5.0,86,0.00,,,0.00,weatherlink.com 1.10,2013-07-18 10:37:00,
2013-07-18 06:52:00,80.6,76.0,30.05,West,271,3.0,6.0,85,0.00,,,0.00,weatherlink.com 1.10,2013-07-18 10:52:00,
2013-07-18 07:07:00,81.2,76.0,30.04,WNW,298,3.0,6.0,84,0.00,,,0.00,weatherlink.com 1.10,2013-07-18 11:07:00,
2013-07-18 07:22:00,81.4,75.0,30.05,West,275,5.0,10.0,82,0.00,,,0.00,weatherlink.com 1.10,2013-07-18 11:22:00,
2013-07-18 07:37:00,81.8,76.0,30.05,NW,311,6.0,9.0,81,0.00,,,0.00,weatherlink.com 1.10,2013-07-18 11:37:00,
2013-07-18 07:52:00,82.3,76.0,30.05,WNW,287,5.0,9.0,81,0.00,,,0.00,weatherlink.com 1.10,2013-07-18 11:52:00,
2013-07-18 08:07:00,82.9,76.0,30.05,WNW,285,2.0,6.0,80,0.00,,,0.00,weatherlink.com 1.10,2013-07-18 12:07:00,
2013-07-18 08:22:00,83.4,76.0,30.05,WNW,297,1.0,6.0,79,0.00,,,0.00,weatherlink.com 1.10,2013-07-18 12:22:00,
2013-07-18 08:37:00,83.8,76.0,30.06,North,11,2.0,7.0,77,0.00,,,0.00,weatherlink.com 1.10,2013-07-18 12:37:00,
2013-07-18 08:52:00,84.2,76.0,30.06,North,353,4.0,5.0,76,0.00,,,0.00,weatherlink.com 1.10,2013-07-18 12:52:00,
2013-07-18 09:08:00,85.5,76.0,30.06,NNW,339,2.0,4.0,73,0.00,,,0.00,weatherlink.com 1.10,2013-07-18 13:08:00,
2013-07-18 09:23:00,85.2,77.0,30.06,North,1,3.0,4.0,75,0.00,,,0.00,weatherlink.com 1.10,2013-07-18 13:23:00,
2013-07-18 09:38:00,85.6,77.0,30.06,North,355,2.0,4.0,75,0.00,,,0.00,weatherlink.com 1.10,2013-07-18 13:38:00,
2013-07-18 09:53:00,86.0,77.0,30.06,North,349,3.0,4.0,74,0.00,,,0.00,weatherlink.com 1.10,2013-07-18 13:53:00,
2013-07-18 10:08:00,86.5,77.0,30.06,North,8,2.0,5.0,73,0.00,,,0.00,weatherlink.com 1.10,2013-07-18 14:08:00,
2013-07-18 10:23:00,86.8,77.0,30.06,ESE,107,2.0,4.0,73,0.00,,,0.00,weatherlink.com 1.10,2013-07-18 14:23:00,
2013-07-18 10:38:00,86.6,77.0,30.06,ESE,108,6.0,6.0,74,0.00,,,0.00,weatherlink.com 1.10,2013-07-18 14:38:00,
2013-07-18 10:53:00,86.6,77.0,30.06,ESE,117,4.0,7.0,74,0.00,,,0.00,weatherlink.com 1.10,2013-07-18 14:53:00,
2013-07-18 11:08:00,86.2,78.0,30.06,ESE,121,5.0,7.0,77,0.00,,,0.00,weatherlink.com 1.10,2013-07-18 15:08:00,
2013-07-18 11:23:00,85.5,78.0,30.05,ESE,117,7.0,8.0,78,0.00,,,0.00,weatherlink.com 1.10,2013-07-18 15:23:00,
2013-07-18 11:38:00,85.6,77.0,30.06,ESE,107,6.0,7.0,76,0.00,,,0.00,weatherlink.com 1.10,2013-07-18 15:38:00,
2013-07-18 11:53:00,85.9,77.0,30.06,East,98,6.0,7.0,75,0.00,,,0.00,weatherlink.com 1.10,2013-07-18 15:53:00,
2013-07-18 12:08:00,86.0,78.0,30.05,ESE,108,5.0,6.0,76,0.00,,,0.00,weatherlink.com 1.10,2013-07-18 16:08:00,
2013-07-18 12:23:00,86.5,78.0,30.05,ESE,114,5.0,6.0,75,0.00,,,0.00,weatherlink.com 1.10,2013-07-18 16:23:00,
2013-07-18 12:38:00,86.8,77.0,30.05,ESE,120,7.0,7.0,73,0.00,,,0.00,weatherlink.com 1.10,2013-07-18 16:38:00,
2013-07-18 12:53:00,87.0,77.0,30.04,ESE,105,6.0,6.0,72,0.00,,,0.00,weatherlink.com 1.10,2013-07-18 16:53:00,
2013-07-18 13:08:00,87.2,77.0,30.04,ESE,112,5.0,6.0,72,0.00,,,0.00,weatherlink.com 1.10,2013-07-18 17:08:00,
2013-07-18 13:23:00,87.3,78.0,30.04,ESE,105,6.0,7.0,73,0.00,,,0.00,weatherlink.com 1.10,2013-07-18 17:23:00,
2013-07-18 13:38:00,87.6,78.0,30.03,ESE,108,6.0,6.0,74,0.00,,,0.00,weatherlink.com 1.10,2013-07-18 17:38:00,
2013-07-18 13:53:00,87.9,79.0,30.03,ESE,112,6.0,7.0,75,0.00,,,0.00,weatherlink.com 1.10,2013-07-18 17:53:00,
2013-07-18 14:08:00,88.2,79.0,30.02,ESE,110,6.0,7.0,74,0.00,,,0.00,weatherlink.com 1.10,2013-07-18 18:08:00,
2013-07-18 14:23:00,88.0,78.0,30.02,ESE,119,9.0,10.0,73,0.00,,,0.00,weatherlink.com 1.10,2013-07-18 18:23:00,
2013-07-18 14:38:00,88.0,79.0,30.01,ESE,112,10.0,11.0,75,0.00,,,0.00,weatherlink.com 1.10,2013-07-18 18:38:00,
2013-07-18 15:23:00,89.9,81.0,30.00,ESE,122,6.0,11.0,75,0.00,,,0.00,weatherlink.com 1.10,2013-07-18 19:23:00,
2013-07-18 15:38:00,90.6,80.0,29.99,SE,139,10.0,11.0,72,0.00,,,0.00,weatherlink.com 1.10,2013-07-18 19:38:00,
2013-07-18 15:53:00,91.2,81.0,29.98,SSE,165,9.0,12.0,71,0.00,,,0.00,weatherlink.com 1.10,2013-07-18 19:53:00,
2013-07-18 16:08:00,91.0,80.0,29.98,ESE,117,10.0,12.0,70,0.00,,,0.00,weatherlink.com 1.10,2013-07-18 20:08:00,
2013-07-18 16:23:00,91.6,79.0,29.98,SSE,156,8.0,11.0,67,0.00,,,0.00,weatherlink.com 1.10,2013-07-18 20:23:00,
2013-07-18 16:38:00,91.9,79.0,29.97,South,183,5.0,12.0,67,0.00,,,0.00,weatherlink.com 1.10,2013-07-18 20:38:00,
2013-07-18 16:53:00,91.6,80.0,29.98,SE,131,4.0,9.0,69,0.00,,,0.00,weatherlink.com 1.10,2013-07-18 20:53:00,
2013-07-18 17:08:00,91.3,79.0,29.97,South,181,6.0,8.0,68,0.00,,,0.00,weatherlink.com 1.10,2013-07-18 21:08:00,
2013-07-18 17:23:00,91.1,80.0,29.97,South,185,6.0,10.0,69,0.00,,,0.00,weatherlink.com 1.10,2013-07-18 21:23:00,
2013-07-18 17:39:00,91.0,80.0,29.96,SE,129,6.0,10.0,71,0.00,,,0.00,weatherlink.com 1.10,2013-07-18 21:39:00,
2013-07-18 17:54:00,91.1,81.0,29.96,SE,138,8.0,10.0,71,0.00,,,0.00,weatherlink.com 1.10,2013-07-18 21:54:00,
2013-07-18 18:09:00,91.2,81.0,29.96,SE,137,5.0,12.0,71,0.00,,,0.00,weatherlink.com 1.10,2013-07-18 22:09:00,
2013-07-18 18:24:00,91.5,82.0,29.96,SSE,148,2.0,10.0,73,0.00,,,0.00,weatherlink.com 1.10,2013-07-18 22:24:00,
2013-07-18 18:39:00,91.6,82.0,29.95,SE,146,3.0,8.0,74,0.00,,,0.00,weatherlink.com 1.10,2013-07-18 22:39:00,
2013-07-18 18:54:00,92.1,81.0,29.97,SSE,160,4.0,8.0,71,0.00,,,0.00,weatherlink.com 1.10,2013-07-18 22:54:00,
2013-07-18 19:09:00,91.7,82.0,29.97,SSW,210,2.0,7.0,73,0.00,,,0.00,weatherlink.com 1.10,2013-07-18 23:09:00,
2013-07-18 19:24:00,91.0,82.0,29.98,South,188,2.0,5.0,74,0.00,,,0.00,weatherlink.com 1.10,2013-07-18 23:24:00,
2013-07-18 19:39:00,91.4,81.0,29.98,South,188,2.0,5.0,72,0.00,,,0.00,weatherlink.com 1.10,2013-07-18 23:39:00,
2013-07-18 19:54:00,91.4,81.0,29.97,SW,217,4.0,5.0,72,0.00,,,0.00,weatherlink.com 1.10,2013-07-18 23:54:00,
2013-07-18 20:09:00,90.7,81.0,29.98,SSE,153,2.0,6.0,73,0.00,,,0.00,weatherlink.com 1.10,2013-07-19 00:09:00,
2013-07-18 20:24:00,90.0,80.0,29.98,South,183,2.0,5.0,73,0.00,,,0.00,weatherlink.com 1.10,2013-07-19 00:24:00,
2013-07-18 20:39:00,89.7,81.0,29.98,SSW,208,1.0,3.0,75,0.00,,,0.00,weatherlink.com 1.10,2013-07-19 00:39:00,
2013-07-18 20:54:00,89.2,80.0,29.98,SSW,207,1.0,4.0,75,0.00,,,0.00,weatherlink.com 1.10,2013-07-19 00:54:00,
2013-07-18 21:09:00,88.8,80.0,29.97,SW,233,1.0,4.0,76,0.00,,,0.00,weatherlink.com 1.10,2013-07-19 01:09:00,
2013-07-18 21:24:00,88.6,80.0,29.98,South,188,1.0,4.0,76,0.00,,,0.00,weatherlink.com 1.10,2013-07-19 01:24:00,
2013-07-18 21:39:00,88.4,80.0,29.98,SW,221,3.0,4.0,76,0.00,,,0.00,weatherlink.com 1.10,2013-07-19 01:39:00,
2013-07-18 21:54:00,88.0,80.0,29.98,SSW,200,4.0,5.0,76,0.00,,,0.00,weatherlink.com 1.10,2013-07-19 01:54:00,
2013-07-18 22:09:00,87.5,80.0,29.98,SSE,160,3.0,6.0,77,0.00,,,0.00,weatherlink.com 1.10,2013-07-19 02:09:00,
2013-07-18 22:24:00,87.2,80.0,29.98,SSW,197,0.0,6.0,78,0.00,,,0.00,weatherlink.com 1.10,2013-07-19 02:24:00,
2013-07-18 22:39:00,87.0,79.0,29.97,SW,221,4.0,5.0,78,0.00,,,0.00,weatherlink.com 1.10,2013-07-19 02:39:00,
2013-07-18 22:54:00,86.9,79.0,29.97,SSW,208,4.0,6.0,78,0.00,,,0.00,weatherlink.com 1.10,2013-07-19 02:54:00,
2013-07-18 23:09:00,86.6,79.0,29.97,SSW,207,1.0,4.0,79,0.00,,,0.00,weatherlink.com 1.10,2013-07-19 03:09:00,
2013-07-18 23:24:00,86.2,79.0,29.97,WSW,245,1.0,5.0,80,0.00,,,0.00,weatherlink.com 1.10,2013-07-19 03:24:00,
2013-07-18 23:39:00,86.0,80.0,29.96,SW,221,4.0,9.0,81,0.00,,,0.00,weatherlink.com 1.10,2013-07-19 03:39:00,
2013-07-18 23:54:00,85.9,80.0,29.96,WSW,246,7.0,7.0,81,0.00,,,0.00,weatherlink.com 1.10,2013-07-19 03:54:00,